FLOCK 4E'-6 (46822 NORAD) Tracking and Keplerian Element Data

This shows tracking and keplerian element data for the satellite.

Feedback or suggestion? Click here.




ElementValue
Catalog46822
NameFLOCK 4E'-6
Epoch Orbit539
Epoch Day338.47576699
Epoch Year2020
RAAN38.5043
Inclination97.4918
Eccentricity0.0012525
Argument of Perigee173.8152
Mean Anonmoly186.3238
Mean Motion15.16970728
Decay Rate5.954E-05
L11 46822U 20077K 20338.47576699 .00005954 00000-0 30438-3 0 9991
L22 46822 97.4918 38.5043 0012525 173.8152 186.3238 15.16970728 5391

Live tracking and technical data element details for FLOCK 4E'-6 (NORAD 46822). FLOCK 4E'-6 can be tracked NOW for your location showing map with azimuth and elevation plus other details from your city location.

Track the satellite on the map from your city or location and see movement details for azimuth, elevation, latitude, longitude, range, height, and movement on the map or in text.







IsCatalogInMostPopularTable: catalog: 46822, numindb: 10
Update: records affected: 1



GetName: 46822 FLOCK 4E'-6

Hit Count: updated at: Sat, 05 Dec 2020 05:35:43 GMT